Погода в Казино

Австралия     28°51′48″S   153°02′44″E
темп.,
°C
ветер,
м/с
пор.,
м/с
влажн.,
%
обл.,
%
осадки,
мм/ч
давл.,
гПа
погр.,
м
13 мая, чт
чт1301:00+16з1298100 1.8 101558
04:00+16з129399 2.1 101431
07:00+14сз22960 0.0 101460
10:00+19зсз35720 0.0 1013503
13:00+22зсз36470 0.0 10101746
16:00+19з26660 0.0 1010160
19:00+14зсз311640 0.0 1012228
22:00+11сз22740 0.0 101338
14 мая, пт
пт1401:00+10сз22810 0.0 101242
04:00+9сз23830 0.0 101245
07:00+9сз22830 0.0 101453
10:00+17зсз13600 0.0 1015410
13:00+21з02480 0.0 1012950
16:00+18в23730 0.0 101289
19:00+13с11825 0.0 101411
22:00+11сз118976 0.0 101610
15 мая, сб
сб1501:00+10сз22855 0.0 101618
04:00+9сз22875 0.0 101521
07:00+9сз22860 0.0 101637
10:00+17сз23626 0.0 1016440
13:00+21зсз244539 0.0 10131127
16:00+19зсз116597 0.0 101231
19:00+12зюз25655 0.0 1016101
22:00+9зсз11790 0.0 101910
16 мая, вс
вс1601:00+7юз11860 0.0 102010
04:00+6зсз11880 0.0 102112
07:00+6зсз21800 0.0 102437
10:00+14юз12560 0.0 1024557
13:00+17ююв12550 0.0 1021945
16:00+16в11720 0.0 102120
19:00+10ссв11870 0.0 102310
22:00+9сз11940 0.0 102410
17 мая, пн
пн1701:00+8сз11960 0.0 102416
04:00+7сз22950 0.0 102318
07:00+7сз21900 0.0 102533
10:00+16сз23590 0.0 1024452
13:00+20юз12430 0.0 10211199
16:00+17юв25700 0.0 1022134
19:00+10ю11910 0.0 102611
22:00+8з11953 0.0 102810